Volver al catálogo

STARLINK-34376

ActivoComunicacionesVLEO
NORAD 64300·PAYLOAD·🇺🇸 United States

Lanzado Jun 8, 2025 desde Vandenberg Space Force Base

Loading…

Próximos Pases (próximas 24 horas)

TLE

ActualizadoSource: CelesTrak SupGP

Época: Sep 14, 2026, 20:54 UTC

1 64300C 25123K   26257.87131944  .00004309  00000+0  14995-3 0  2578
2 64300  70.0002  75.7935 0003185 272.2646 248.2028 15.29566623    18

Sigue STARLINK-34376 en tiempo real con AllMySat

Download on the App Store